Tracking 32941 objects as of 15-Jan-2026
HD Live streaming from Space Station
objects crossing your sky now

FREGAT R/B

Track FREGAT R/B now!


NORAD ID: 37345
Int'l Code: 2011-001B
Perigee: 34,473.8 km
Apogee: 35,726.0 km
Inclination: 9.9 °
Period: 1,400.8 minutes
Semi major axis: 41470 km
RCS: 8.569 m2 (large)
Launch date: January 20, 2011
Source: Commonwealth of Independent States (former USSR) (CIS)
Launch site: TYURATAM MISSILE AND SPACE COMPLEX (TTMTR)

Note: This is a ROCKET BODY
Your satellite tracking list
Your tracking list is empty




NASA's NSSDC Master Catalog

Two Line Element Set (TLE):
1 37345U 11001B   26015.33757142  .00000005  00000-0  00000+0 0  9995
2 37345   9.9484  43.7540 0150968  67.1521 308.3347  1.02798718 58837
Source of the keplerian elements: AFSPC